Weather History for Spirit of St Louis, MO

Change the Weather History Date:

Saturday, November 17, 2012

  Actual Average Record
Temperature  
Mean Temperature 41 °F -  
Max Temperature 57 °F 53 °F 79 °F (2013)
Min Temperature 25 °F 32 °F 14 °F (1997)
Degree Days  
Heating Degree Days 24    
Moisture  
Dew Point 28 °F    
Average Humidity 68    
Maximum Humidity 92    
Minimum Humidity 25    
Precipitation  
Precipitation 0.00 in - - ()
Sea Level Pressure  
Sea Level Pressure 30.46 in    
Wind  
Wind Speed 1 mph (East)    
Max Wind Speed 8 mph    
Max Gust Speed -    
Visibility 8 miles    
Events      
Averages and records for this station are not official NWS values.
T = Trace of Precipitation, MM = Missing Value Source: NWS Daily Summary

Daily Weather History Graph

Daily Weather History Graph

Search for Another Location

Airport:

Trip Planner

Search our weather history database for the weather conditions in past years. The results will help you decide how hot, cold, wet, or windy it might be!

Date:

Astronomy

Nov. 17, 2012 Rise Set
Actual Time 6:47 AM CST 4:47 PM CST
Civil Twilight 6:18 AM CST 5:16 PM CST
Nautical Twilight 5:46 AM CST 5:48 PM CST
Astronomical Twilight 5:15 AM CST 6:19 PM CST
Moon 10:32 AM CST (11/17) 8:57 PM CST (11/17)
Length of Visible Light 10h 57m
Length of Day
10h 00m
Waxing Crescent, 20% of the Moon is Illuminated
Nov 17
Waxing Crescent
Nov 20
First Quarter
Nov 28
Full
Dec 6
Last Quarter
Dec 13
New

Hourly Weather History & Observations

Time (CST) Temp. Windchill Dew Point Humidity Pressure Visibility Wind Dir Wind Speed Gust Speed Precip Events Conditions
12:54 AM 30.0 °F - 27.0 °F 88% 30.47 in 7.0 mi Calm Calm - N/A   Clear
1:54 AM 28.0 °F - 25.0 °F 88% 30.47 in 5.0 mi Calm Calm - N/A   Clear
2:54 AM 27.0 °F - 24.1 °F 89% 30.48 in 6.0 mi Calm Calm - N/A   Clear
3:54 AM 28.0 °F - 25.0 °F 88% 30.48 in 5.0 mi Calm Calm - N/A   Clear
4:54 AM 27.0 °F - 25.0 °F 92% 30.50 in 5.0 mi Calm Calm - N/A   Clear
5:54 AM 27.0 °F - 24.1 °F 89% 30.49 in 10.0 mi Calm Calm - N/A   Clear
6:54 AM 25.0 °F - 21.9 °F 88% 30.51 in 5.0 mi Calm Calm - N/A   Clear
7:54 AM 30.0 °F - 27.0 °F 88% 30.52 in 8.0 mi Calm Calm - N/A   Clear
8:54 AM 37.0 °F - 32.0 °F 82% 30.53 in 6.0 mi Calm Calm - N/A   Haze
9:54 AM 46.0 °F 43.9 °F 34.0 °F 63% 30.53 in 5.0 mi NE 4.6 mph - N/A   Haze
10:54 AM 51.1 °F - 34.0 °F 52% 30.51 in 10.0 mi Calm Calm - N/A   Partly Cloudy
11:54 AM 55.0 °F - 28.9 °F 37% 30.48 in 10.0 mi SE 4.6 mph - N/A   Partly Cloudy
12:54 PM 57.0 °F - 28.0 °F 33% 30.45 in 10.0 mi ESE 6.9 mph - N/A   Clear
1:54 PM 57.9 °F - 24.1 °F 27% 30.43 in 10.0 mi Variable 6.9 mph - N/A   Mostly Cloudy
2:54 PM 57.2 °F - 21.2 °F 25% 30.41 in 10.0 mi ESE 6.9 mph - N/A   Scattered Clouds
3:54 PM 55.9 °F - 28.0 °F 34% 30.42 in 10.0 mi East 8.1 mph - N/A   Scattered Clouds
4:54 PM 52.0 °F - 28.9 °F 41% 30.41 in 10.0 mi ESE 3.5 mph - N/A   Scattered Clouds
5:54 PM 48.0 °F - 28.9 °F 48% 30.41 in 10.0 mi ESE 4.6 mph - N/A   Clear
6:54 PM 39.0 °F - 30.0 °F 70% 30.42 in 10.0 mi Calm Calm - N/A   Clear
7:54 PM 39.0 °F - 30.9 °F 73% 30.43 in 10.0 mi Calm Calm - N/A   Clear
8:54 PM 36.0 °F - 30.0 °F 79% 30.43 in 9.0 mi Calm Calm - N/A   Clear
9:54 PM 37.0 °F - 30.9 °F 79% 30.43 in 9.0 mi Calm Calm - N/A   Clear
10:54 PM 30.9 °F 26.2 °F 28.0 °F 89% 30.42 in 9.0 mi ENE 4.6 mph - N/A   Clear
11:54 PM 33.1 °F - 28.9 °F 85% 30.41 in 7.0 mi Calm Calm - N/A   Clear